Wind_Speed
18 17 16 16 15 13 12 11 11 12 12 11 12 14 16 17 17 16 16 16 15 13 12 11 11 10 9 9 11 15 18 21 22 23 23 24 23 21 20 19 16 14 12 10
19 18 18 18 15 13 12 11 11 12 12 11 11 13 15 15 16 15 15 15 14 13 11 10 10 9 8 9 11 13 17 20 21 21 23 24 23 22 21 20 17 15 13 11
20 20 20 18 16 13 12 12 12 11 10 10 11 12 14 15 15 15 15 15 14 13 13 12 10 8 8 9 10 13 16 19 21 22 22 23 22 22 22 19 18 16 14 12
21 21 20 18 16 14 13 13 12 10 9 10 11 11 14 15 16 15 15 15 14 14 13 11 9 7 7 8 10 12 15 18 21 23 22 22 22 22 22 20 18 17 15 14
20 20 19 18 16 15 14 14 12 10 9 9 11 11 13 15 16 15 14 14 14 14 12 11 9 6 6 6 8 11 14 17 20 23 22 22 22 23 23 20 18 17 16 15
20 19 19 18 17 16 14 13 12 10 9 9 10 10 11 14 14 13 13 14 13 13 11 11 9 6 4 4 7 10 13 15 18 21 21 22 22 23 23 21 19 18 17 15
18 18 18 17 17 15 15 13 11 9 9 10 11 10 11 13 12 11 13 13 12 12 11 11 9 7 5 4 5 9 12 14 15 18 20 20 22 22 22 21 20 19 18 16
17 17 17 17 16 17 16 15 13 11 10 10 11 10 11 11 11 11 12 13 12 12 11 11 10 7 5 4 5 8 10 12 14 17 19 20 20 20 20 21 20 20 18 17
16 17 16 17 17 18 18 17 15 15 13 10 10 11 11 11 11 11 12 12 11 11 12 11 10 7 5 4 4 6 8 11 13 15 18 19 20 20 20 21 20 20 19 17
17 17 17 17 17 18 19 18 18 16 13 12 11 11 11 12 12 11 11 12 11 10 10 10 10 8 6 4 3 4 7 10 12 14 17 18 19 19 19 19 19 20 19 17
19 18 17 18 18 18 19 19 18 17 16 14 12 12 13 12 11 11 11 11 10 10 9 9 9 8 6 4 3 3 5 8 10 13 15 16 17 18 19 19 19 19 19 18
22 21 20 19 20 20 21 20 20 18 17 16 14 13 14 12 11 11 11 10 10 9 9 10 9 8 6 5 3 2 3 5 8 10 12 13 14 16 16 17 18 19 19 19
26 25 22 20 21 23 23 22 22 21 21 19 16 15 16 12 11 11 11 11 11 10 9 9 10 8 7 5 5 4 3 5 6 8 11 12 12 13 14 16 17 18 18 19
29 28 25 22 21 23 23 23 23 23 22 21 19 17 18 15 13 12 11 11 11 10 10 9 10 9 8 6 6 6 6 6 8 9 10 11 12 13 14 15 17 17 18 19
31 30 29 28 28 27 25 25 24 24 23 23 21 20 20 18 16 15 14 13 12 11 11 10 10 9 9 8 8 8 8 8 9 10 10 11 12 13 13 14 16 17 17 18
33 33 31 30 30 30 29 27 27 27 26 26 25 23 22 21 19 18 17 15 14 13 13 12 12 11 10 9 9 9 9 9 10 11 11 12 13 14 14 14 15 17 18 20
34 34 33 31 32 33 32 29 29 28 27 27 27 26 25 23 23 21 20 19 18 17 16 15 14 13 13 12 12 11 11 11 11 12 13 14 14 15 15 16 17 18 20 21
34 35 35 34 35 37 31 32 30 30 30 30 30 29 27 26 26 25 24 23 21 19 18 17 16 15 15 15 16 16 15 15 15 15 16 16 16 17 18 18 19 20 21 23
32 33 34 35 35 36 33 33 31 31 31 31 31 30 29 28 28 28 27 26 24 22 21 20 19 18 18 18 19 19 19 18 18 18 19 19 19 20 21 21 21 22 23 23
30 31 33 34 34 34 32 33 30 31 32 31 31 31 30 30 30 30 29 28 27 26 25 24 23 22 22 21 21 22 22 22 21 21 22 22 23 23 23 23 23 23 25 26
27 29 30 30 32 32 32 30 29 31 31 29 29 30 30 31 32 31 30 30 30 29 28 27 25 25 24 24 23 23 24 25 25 24 25 25 25 25 24 25 26 27 28 29
25 26 27 28 29 30 29 27 29 29 28 28 28 29 30 31 31 31 31 32 31 31 30 30 29 28 27 27 27 27 28 28 28 28 27 27 27 27 27 28 28 29 30 31
24 25 26 27 27 28 27 27 27 27 28 28 28 29 30 31 31 31 31 31 32 32 31 31 31 31 29 29 30 30 31 30 30 29 29 29 28 28 29 30 31 32 32 33
23 23 24 24 24 25 25 25 25 26 26 27 28 28 30 31 31 31 31 31 32 33 33 32 32 32 31 31 31 32 31 31 30 29 29 29 30 30 31 31 32 32 33 35
22 22 22 22 22 23 23 23 24 24 24 25 26 27 28 28 29 29 29 30 30 30 29 29 30 30 31 30 31 31 31 30 31 30 29 29 29 30 31 32 33 34 35 37
19 20 20 20 21 21 20 21 22 22 22 23 25 25 26 26 27 28 28 27 27 27 28 28 29 29 29 28 28 29 30 29 28 28 27 28 29 30 31 33 34 35 37 39
Wind_Direction
285 283 281 279 280 277 276 276 279 288 303 312 316 315 315 319 322 326 331 332 329 320 310 307 302 293 278 256 233 225 220 216 214 214 215 216 214 215 219 218 218 219 218 216
281 278 276 278 279 276 272 270 273 282 297 309 315 313 313 317 324 331 337 337 336 331 322 312 306 295 270 252 238 235 223 217 214 212 214 213 214 216 215 214 216 217 217 216
277 274 275 276 274 270 264 261 264 276 299 310 316 319 315 318 323 331 337 340 339 335 327 318 311 294 270 253 247 237 224 218 214 212 213 214 213 213 211 212 214 216 217 219
271 272 272 270 267 262 256 257 261 275 294 302 312 319 314 318 321 327 335 339 338 336 333 330 321 301 281 257 242 230 221 215 214 213 212 210 211 213 211 212 214 216 218 219
270 269 269 266 259 253 249 252 256 269 285 300 312 318 315 318 322 328 334 339 339 339 337 338 331 311 290 258 235 221 215 214 213 211 211 211 213 212 212 213 215 218 219 221
268 271 268 262 255 251 250 251 256 269 284 296 302 312 319 322 325 329 335 339 340 344 347 345 337 321 302 265 231 214 210 212 211 210 211 212 212 213 214 215 218 219 220 223
269 270 267 260 252 249 247 246 254 271 282 285 291 306 312 320 324 329 335 340 343 345 350 350 341 329 312 279 230 207 207 208 205 206 208 210 211 213 216 215 216 218 220 221
267 267 264 257 246 243 241 239 238 243 258 273 289 299 308 318 321 327 334 339 343 345 348 351 347 335 320 288 241 212 211 208 205 206 209 209 209 211 213 213 216 219 220 221
258 258 261 255 246 240 238 237 237 246 257 268 277 292 304 311 318 325 331 338 341 344 346 349 349 339 321 295 251 222 215 208 209 208 209 209 208 210 212 214 217 219 219 223
253 252 258 257 250 244 239 239 242 244 253 263 277 290 296 305 317 323 329 334 337 340 344 348 350 343 330 311 274 233 213 210 208 207 207 209 212 212 213 216 219 221 223 227
248 246 250 252 249 246 245 244 244 246 247 253 266 277 281 292 306 315 323 329 331 336 340 342 346 346 335 317 287 256 222 213 213 210 210 214 217 217 220 221 222 225 228 231
242 241 241 247 249 247 246 245 247 249 257 261 262 270 276 282 294 303 311 318 323 329 336 339 336 337 330 312 293 274 229 215 215 212 213 217 219 218 223 228 229 230 234 237
241 241 242 249 254 250 247 247 249 252 254 257 263 272 276 275 282 290 298 303 309 316 325 332 331 326 321 301 274 258 230 215 212 214 214 217 222 225 228 231 233 235 238 240
242 243 240 237 242 248 249 248 249 252 254 258 262 262 269 273 272 278 287 292 297 303 310 318 324 318 305 291 272 255 243 232 225 221 219 224 227 230 236 238 239 242 243 243
242 243 243 240 243 248 250 249 250 251 252 254 257 261 263 266 266 269 275 280 284 289 294 303 310 308 302 291 275 265 255 249 242 238 235 232 235 239 242 243 242 241 243 246
243 245 246 247 249 251 250 250 253 254 256 258 257 257 258 259 258 260 263 268 272 276 282 288 294 294 293 290 282 272 265 259 255 253 250 246 245 249 250 247 244 246 248 250
244 246 248 250 252 254 254 253 253 255 256 257 257 256 254 252 253 255 255 259 264 268 273 278 282 283 284 284 280 277 272 268 264 263 260 254 255 256 255 252 252 254 254 254
244 246 249 251 253 255 257 255 254 256 256 256 256 254 251 250 250 252 254 255 258 262 265 269 274 274 275 276 276 273 274 269 265 263 261 260 260 259 258 258 259 262 263 263
244 246 249 252 255 259 259 259 258 258 257 254 253 252 250 250 249 249 251 252 253 254 257 261 267 269 270 271 272 270 270 268 265 264 263 262 263 264 261 261 263 266 266 267
246 248 250 253 255 257 259 259 258 258 257 253 251 250 249 248 248 247 246 248 249 249 253 256 260 264 266 267 268 267 266 266 263 263 263 264 264 265 264 262 263 264 267 270
248 249 251 254 256 257 258 259 257 255 254 251 248 247 246 245 244 245 243 243 244 246 250 252 255 260 262 264 267 267 266 265 263 263 263 264 265 264 263 264 265 267 270 272
249 250 251 252 255 258 258 256 254 252 250 247 244 243 243 243 242 242 241 240 241 244 247 249 253 257 260 261 262 264 264 262 261 262 263 264 266 265 265 267 269 271 273 276
249 250 252 253 256 259 260 257 253 250 247 244 242 241 240 239 240 240 239 238 240 242 244 247 251 255 257 258 260 263 263 262 260 259 261 262 264 265 266 269 272 274 277 279
250 250 253 256 258 260 260 258 254 249 246 242 239 238 237 237 238 239 238 239 241 242 244 248 251 254 255 258 261 263 261 260 258 258 259 262 264 266 268 272 274 277 279 281
252 251 255 258 259 259 258 255 251 247 244 240 235 235 234 233 233 235 237 239 240 242 246 247 251 253 255 257 258 258 255 256 258 259 262 265 269 271 273 274 278 281 283 285
249 251 253 254 255 256 255 252 249 244 240 235 232 231 230 231 233 235 236 238 241 245 247 249 251 250 252 255 256 257 259 258 259 263 265 268 271 273 276 278 281 283 285 286
Height
5879 5879 5879 5878 5878 5879 5879 5879 5879 5879 5877 5877 5875 5873 5870 5867 5864 5860 5857 5853 5850 5847 5845 5842 5841 5839 5838 5838 5838 5840 5842 5844 5847 5851 5855 5858 5862 5865 5868 5871 5873 5875 5877 5879
5875 5875 5875 5874 5875 5875 5876 5876 5877 5876 5875 5874 5873 5871 5868 5865 5862 5858 5855 5851 5848 5845 5842 5840 5839 5837 5836 5836 5837 5837 5839 5842 5845 5848 5852 5855 5859 5862 5865 5868 5871 5873 5875 5877
5870 5871 5870 5870 5871 5872 5872 5873 5874 5873 5872 5872 5871 5869 5866 5863 5860 5856 5853 5850 5846 5843 5840 5838 5836 5834 5834 5833 5834 5835 5837 5839 5842 5845 5849 5852 5856 5859 5862 5866 5869 5871 5873 5875
5865 5865 5865 5866 5867 5868 5869 5870 5870 5870 5870 5871 5869 5868 5864 5861 5858 5855 5851 5848 5845 5841 5838 5836 5833 5832 5831 5831 5831 5832 5834 5836 5839 5843 5846 5850 5853 5857 5860 5863 5866 5869 5871 5873
5860 5861 5861 5862 5863 5864 5865 5866 5867 5867 5867 5868 5867 5865 5864 5859 5856 5853 5850 5847 5843 5840 5837 5834 5832 5830 5829 5828 5828 5829 5831 5834 5836 5840 5843 5847 5851 5855 5858 5861 5864 5867 5869 5871
5856 5856 5856 5857 5858 5860 5861 5863 5864 5865 5866 5867 5865 5863 5862 5857 5854 5851 5848 5845 5842 5839 5836 5834 5831 5829 5828 5827 5826 5827 5829 5831 5833 5837 5840 5844 5848 5852 5855 5859 5862 5864 5867 5869
5851 5851 5852 5853 5854 5856 5858 5861 5863 5864 5865 5865 5862 5860 5859 5855 5852 5850 5847 5844 5841 5838 5836 5833 5831 5828 5827 5826 5826 5827 5828 5830 5832 5835 5838 5842 5845 5849 5852 5856 5859 5861 5864 5867
5847 5848 5848 5848 5850 5852 5854 5857 5860 5863 5864 5863 5860 5858 5857 5853 5851 5848 5845 5843 5840 5838 5835 5833 5830 5828 5827 5826 5826 5826 5827 5828 5831 5834 5837 5840 5843 5846 5849 5853 5856 5859 5861 5864
5843 5844 5844 5844 5846 5848 5850 5852 5856 5857 5858 5858 5858 5856 5853 5851 5849 5847 5844 5842 5839 5837 5835 5832 5830 5828 5827 5826 5826 5826 5826 5827 5830 5832 5834 5837 5841 5844 5847 5850 5853 5856 5859 5861
5838 5840 5840 5841 5842 5844 5846 5848 5850 5852 5854 5855 5856 5854 5852 5849 5847 5845 5843 5841 5839 5837 5835 5832 5830 5828 5827 5826 5826 5826 5826 5827 5828 5831 5833 5836 5839 5842 5845 5847 5850 5853 5856 5858
5834 5836 5837 5838 5839 5841 5842 5844 5845 5848 5850 5851 5853 5854 5849 5847 5845 5843 5841 5839 5838 5836 5834 5832 5830 5828 5827 5827 5826 5826 5826 5827 5828 5830 5832 5834 5837 5840 5842 5845 5847 5850 5852 5854
5828 5831 5833 5834 5835 5836 5837 5839 5841 5843 5845 5845 5847 5851 5845 5844 5842 5841 5840 5838 5837 5835 5834 5832 5830 5828 5827 5826 5826 5826 5826 5827 5828 5829 5831 5833 5835 5837 5840 5842 5844 5847 5849 5850
5822 5825 5828 5830 5832 5831 5832 5834 5836 5838 5839 5840 5843 5847 5841 5840 5839 5838 5837 5836 5835 5834 5832 5831 5829 5828 5827 5826 5826 5827 5827 5827 5828 5829 5830 5832 5834 5836 5837 5839 5841 5843 5844 5846
5814 5817 5822 5826 5825 5825 5826 5828 5830 5832 5834 5836 5837 5839 5837 5836 5836 5835 5834 5833 5832 5832 5831 5830 5828 5827 5826 5826 5826 5826 5827 5827 5828 5829 5830 5831 5832 5834 5835 5836 5837 5839 5840 5842
5806 5809 5812 5815 5816 5818 5820 5822 5823 5825 5827 5829 5831 5832 5832 5831 5831 5831 5830 5830 5829 5829 5828 5828 5827 5826 5825 5825 5825 5825 5826 5826 5827 5828 5828 5829 5830 5831 5832 5833 5834 5835 5836 5837
5797 5801 5803 5806 5809 5810 5812 5815 5816 5818 5819 5821 5823 5824 5825 5825 5825 5826 5826 5826 5825 5825 5825 5825 5825 5824 5824 5824 5824 5824 5824 5825 5825 5826 5826 5827 5828 5828 5829 5829 5830 5831 5832 5832
5789 5792 5795 5798 5800 5800 5803 5807 5808 5810 5811 5813 5814 5817 5817 5818 5819 5819 5820 5821 5821 5821 5821 5821 5821 5821 5821 5821 5821 5822 5822 5822 5822 5823 5823 5824 5824 5825 5825 5826 5826 5826 5826 5827
5781 5783 5785 5789 5791 5791 5798 5797 5799 5800 5802 5804 5805 5807 5808 5810 5811 5812 5814 5815 5815 5816 5816 5817 5817 5817 5817 5818 5818 5818 5818 5818 5819 5819 5819 5820 5820 5821 5821 5821 5821 5821 5821 5821
5772 5775 5777 5779 5780 5782 5786 5786 5789 5790 5792 5793 5795 5797 5799 5801 5803 5804 5806 5807 5809 5810 5811 5812 5812 5812 5813 5813 5813 5813 5814 5814 5814 5814 5814 5815 5815 5815 5816 5816 5816 5815 5815 5814
5764 5766 5768 5769 5771 5773 5777 5776 5778 5781 5782 5783 5785 5787 5790 5792 5794 5796 5797 5799 5801 5803 5804 5805 5806 5807 5807 5807 5808 5808 5808 5809 5809 5809 5809 5809 5809 5809 5809 5809 5809 5809 5808 5807
5756 5757 5759 5760 5761 5763 5765 5767 5769 5772 5773 5774 5775 5777 5780 5782 5784 5787 5789 5790 5793 5795 5797 5798 5799 5800 5801 5801 5802 5802 5802 5803 5803 5803 5803 5803 5803 5803 5803 5802 5802 5801 5801 5799
5748 5749 5751 5752 5753 5756 5755 5758 5759 5761 5762 5764 5766 5768 5770 5772 5775 5777 5780 5782 5784 5787 5789 5791 5792 5793 5794 5794 5795 5795 5795 5795 5796 5796 5796 5796 5796 5796 5795 5795 5794 5793 5792 5791
5740 5742 5742 5744 5747 5746 5746 5747 5749 5750 5752 5754 5756 5759 5761 5763 5766 5768 5771 5773 5776 5779 5781 5782 5784 5785 5786 5787 5788 5788 5788 5788 5788 5788 5788 5788 5788 5788 5787 5786 5786 5785 5783 5781
5733 5734 5735 5736 5737 5737 5738 5738 5740 5741 5743 5745 5747 5750 5752 5755 5757 5760 5763 5765 5768 5770 5772 5774 5776 5777 5778 5779 5779 5779 5780 5780 5779 5780 5780 5780 5779 5779 5778 5778 5777 5775 5774 5772
5726 5727 5728 5729 5730 5729 5730 5730 5731 5733 5734 5736 5739 5741 5744 5746 5749 5752 5754 5757 5759 5762 5764 5765 5767 5769 5770 5771 5771 5771 5771 5771 5772 5772 5772 5771 5771 5770 5769 5769 5767 5766 5764 5762
5720 5721 5721 5722 5722 5722 5723 5723 5723 5725 5727 5728 5731 5733 5736 5739 5742 5745 5747 5749 5752 5755 5756 5758 5759 5761 5762 5763 5764 5764 5764 5764 5764 5764 5764 5763 5763 5762 5761 5760 5758 5755 5754 5751